Time,TemperatureF,DewpointF,PressureIn,WindDirection,WindDirectionDegrees,WindSpeedMPH,WindSpeedGustMPH,Humidity,HourlyPrecipIn,Conditions,Clouds,dailyrainin,SoftwareType,DateUTC
2013-12-03 00:42:00,60.0,60.0,29.80,SW,215,5.0,7.0,136,0.00,,,-99.99,,2013-12-03 06:42:00,
2013-12-03 01:42:00,60.0,60.0,29.78,SW,220,5.0,6.0,137,0.00,,,-99.99,,2013-12-03 07:42:00,
2013-12-03 02:42:00,60.0,60.0,29.78,SW,216,5.0,6.0,137,0.00,,,-99.99,,2013-12-03 08:42:00,
2013-12-03 03:22:00,60.0,-99.9,-100.00,SW,218,4.0,-999.0,137,0.00,,,-99.99,,2013-12-03 09:22:00,
2013-12-03 03:33:00,60.0,-99.9,-100.00,SW,218,4.0,-999.0,137,0.00,,,-99.99,,2013-12-03 09:33:00,
2013-12-03 03:43:00,60.0,-99.9,-100.00,SW,218,4.0,-999.0,137,0.00,,,-99.99,,2013-12-03 09:43:00,
2013-12-03 04:42:00,60.0,60.0,29.78,SW,219,7.0,9.0,137,0.00,,,-99.99,,2013-12-03 10:42:00,
2013-12-03 05:42:00,60.0,60.0,29.76,SW,217,6.0,8.0,138,0.00,,,-99.99,,2013-12-03 11:42:00,
2013-12-03 06:42:00,60.0,60.0,29.77,SSW,210,5.0,8.0,137,0.00,,,-99.99,,2013-12-03 12:42:00,
2013-12-03 07:42:00,60.0,60.0,29.78,SSW,207,4.0,5.0,137,0.00,,,-99.99,,2013-12-03 13:42:00,
2013-12-03 09:43:00,63.0,63.0,29.81,SSW,200,6.0,8.0,129,0.00,,,-99.99,,2013-12-03 15:43:00,
2013-12-03 10:43:00,63.0,63.0,29.83,South,190,6.0,8.0,131,0.00,,,-99.99,,2013-12-03 16:43:00,
2013-12-03 11:42:00,63.0,63.0,29.82,SSW,193,7.0,8.0,128,0.00,,,-99.99,,2013-12-03 17:42:00,
2013-12-03 12:42:00,64.0,64.0,29.80,South,186,6.0,8.0,127,0.00,,,-99.99,,2013-12-03 18:42:00,
2013-12-03 14:42:00,64.0,62.0,29.76,South,188,8.0,11.0,92,-99.99,,,-99.99,,2013-12-03 20:42:00,
2013-12-03 15:44:00,64.0,62.0,29.76,SSW,205,7.0,9.0,92,0.00,,,-99.99,,2013-12-03 21:44:00,
2013-12-03 16:43:00,64.0,62.0,29.76,SSW,201,10.0,12.0,93,0.00,,,-99.99,,2013-12-03 22:43:00,
2013-12-03 17:42:00,63.0,62.0,29.76,SSW,201,9.0,10.0,96,0.00,,,-99.99,,2013-12-03 23:42:00,
2013-12-03 18:42:00,63.0,62.0,29.77,SSW,202,4.0,5.0,97,0.00,,,-99.99,,2013-12-04 00:42:00,
2013-12-03 19:42:00,62.0,62.0,29.79,SW,220,3.0,3.0,98,0.00,,,-99.99,,2013-12-04 01:42:00,
2013-12-03 20:22:00,63.0,62.0,29.80,SSW,208,6.0,7.0,98,0.00,,,-99.99,,2013-12-04 02:22:00,
2013-12-03 20:32:00,63.0,62.0,29.80,SSW,208,6.0,7.0,98,0.00,,,-99.99,,2013-12-04 02:32:00,
2013-12-03 20:42:00,63.0,62.0,29.80,SSW,208,6.0,7.0,98,0.00,,,-99.99,,2013-12-04 02:42:00,
2013-12-03 21:43:00,63.0,63.0,29.81,SSW,205,9.0,11.0,97,0.00,,,-99.99,,2013-12-04 03:43:00,
2013-12-03 22:42:00,63.0,62.0,29.83,SSW,202,8.0,10.0,98,0.00,,,-99.99,,2013-12-04 04:42:00,
2013-12-03 23:42:00,63.0,63.0,29.83,SSW,209,8.0,10.0,98,0.00,,,-99.99,,2013-12-04 05:42:00,